Marrakech, Morocco

12:23 PM WET on June 24, 2017 (GMT +0000)
Marrakech

Weather History for GMMX - August, 2012

Change the Weather History Date:

Tuesday, August 28, 2012

  Actual Average Record
Temperature  
Mean Temperature 88 °F -  
Max Temperature 106 °F 88 °F 111 °F (2010)
Min Temperature 69 °F 64 °F 62 °F (2013)
Cooling Degree Days 22    
Growing Degree Days 38 (Base 50)    
Moisture  
Dew Point 58 °F    
Average Humidity 38    
Maximum Humidity 73    
Minimum Humidity 12    
Precipitation  
Precipitation 0.00 in 0.01 in - ()
Sea Level Pressure  
Sea Level Pressure 30.07 in    
Wind  
Wind Speed 5 mph ()    
Max Wind Speed 12 mph    
Max Gust Speed -    
Visibility 6.2 miles    
Events      
Averages and records for this station are not official NWS values.
T = Trace of Precipitation, MM = Missing Value Source: Averaged Metar Reports

Daily Weather History Graph

Daily Weather History Graph

Search for Another Location

Airport or City:

Trip Planner

Search our weather history database for the weather conditions in past years. The results will help you decide how hot, cold, wet, or windy it might be!

Date:

Astronomy

Aug. 28, 2012 Rise Set
Actual Time 7:05 AM WEST 8:00 PM WEST
Civil Twilight 6:40 AM WEST 8:25 PM WEST
Nautical Twilight 6:11 AM WEST 8:54 PM WEST
Astronomical Twilight 5:40 AM WEST 9:25 PM WEST
Moon 5:47 PM WEST (8/28) 3:48 AM WEST (8/28)
Length of Visible Light 13h 44m
Length of Day
12h 54m
Waxing Gibbous, 89% of the Moon is Illuminated
Aug 28
Waxing Gibbous
Aug 31
Full
Sep 8
Last Quarter
Sep 16
New
Sep 22
First Quarter

Hourly Weather History & Observations

Time (WEST) Temp. Heat Index Dew Point Humidity Pressure Visibility Wind Dir Wind Speed Gust Speed Precip Events Conditions
12:00 AM 82.4 °F 82.5 °F 59.0 °F 45% 30.12 in 6.2 mi ENE 3.5 mph - N/A   Partly Cloudy
12:30 AM 82.4 °F 82.5 °F 59.0 °F 45% 30.12 in 6.2 mi East 3.5 mph - N/A   Partly Cloudy
1:00 AM 81 °F - 58 °F 35% 30.02 in 6 mi NE 3.5 mph - -   Scattered Clouds
1:00 AM 80.6 °F 81.1 °F 59.0 °F 48% 30.09 in 6.2 mi NE 3.5 mph - N/A   Partly Cloudy
4:00 AM 73 °F - 61 °F 57% 30.01 in - West 6.9 mph - -  
5:00 AM 73.4 °F - 60.8 °F 65% 30.06 in - West 6.9 mph - N/A   Clear
5:30 AM 73.4 °F - 62.6 °F 69% 30.06 in - Variable 2.3 mph - N/A   Clear
6:00 AM 71.6 °F - 60.8 °F 69% 30.06 in - WSW 2.3 mph - N/A   Clear
6:30 AM 71.6 °F - 60.8 °F 69% 30.09 in - West 8.1 mph - N/A   Clear
7:00 AM 70 °F - 61 °F 66% 30.04 in 6 mi West 6.9 mph - -  
7:00 AM 69.8 °F - 60.8 °F 73% 30.09 in - West 6.9 mph - N/A   Clear
7:30 AM 69.8 °F - 60.8 °F 73% 30.09 in - West 6.9 mph - N/A   Clear
8:00 AM 71.6 °F - 62.6 °F 73% 30.09 in - West 4.6 mph - N/A   Clear
8:30 AM 75.2 °F - 62.6 °F 65% 30.09 in - WSW 3.5 mph - N/A   Clear
9:00 AM 77.0 °F - 62.6 °F 61% 30.09 in - South 3.5 mph - N/A   Clear
9:30 AM 82.4 °F 83.4 °F 62.6 °F 51% 30.09 in - WNW 3.5 mph - N/A   Clear
10:00 AM 86 °F - 62 °F 35% 30.00 in 6 mi West 2.3 mph - -  
10:00 AM 86.0 °F 86.6 °F 62.6 °F 45% 30.09 in - Variable 1.2 mph - N/A   Clear
10:30 AM 87.8 °F 88.5 °F 62.6 °F 43% 30.09 in 6.2 mi NW 3.5 mph - N/A   Partly Cloudy
11:00 AM 87.8 °F 88.5 °F 62.6 °F 43% 30.12 in 6.2 mi NW 4.6 mph - N/A   Partly Cloudy
11:30 AM 89.6 °F 89.5 °F 60.8 °F 38% 30.12 in 6.2 mi NW 5.8 mph - N/A   Partly Cloudy
12:00 PM 93.2 °F 93.3 °F 60.8 °F 34% 30.09 in 6.2 mi North 4.6 mph - N/A   Partly Cloudy
12:30 PM 95.0 °F 94.4 °F 59.0 °F 30% 30.09 in 6.2 mi Variable 4.6 mph - N/A   Partly Cloudy
1:00 PM 96 °F - 58 °F 19% 29.97 in 6 mi NNW 4.6 mph - -   Scattered Clouds
1:00 PM 96.8 °F 96.2 °F 59.0 °F 28% 30.09 in 6.2 mi NNW 4.6 mph - N/A   Partly Cloudy
1:30 PM 98.6 °F 98.5 °F 59.0 °F 27% 30.09 in 6.2 mi NW 5.8 mph - N/A   Partly Cloudy
2:00 PM 100.4 °F 100.2 °F 59.0 °F 25% 30.06 in 6.2 mi NW 5.8 mph - N/A   Partly Cloudy
2:30 PM 102.2 °F 101.4 °F 57.2 °F 22% 30.06 in 6.2 mi NW 6.9 mph - N/A   Partly Cloudy
3:00 PM 102.2 °F 101.4 °F 57.2 °F 22% 30.06 in 6.2 mi NNW 3.5 mph - N/A   Partly Cloudy
3:30 PM 104.0 °F 103.4 °F 57.2 °F 21% 30.06 in 6.2 mi West 6.9 mph - N/A   Partly Cloudy
4:00 PM 105 °F - 56 °F 12% 29.91 in 6 mi West 8.1 mph - -   Scattered Clouds
4:00 PM 105.8 °F 105.5 °F 57.2 °F 20% 30.06 in 6.2 mi WNW 6.9 mph - N/A   Partly Cloudy
4:30 PM 104.0 °F 102.9 °F 55.4 °F 20% 30.06 in 6.2 mi NW 6.9 mph - N/A   Scattered Clouds
5:00 PM 104.0 °F 103.4 °F 57.2 °F 21% 30.06 in 6.2 mi WNW 11.5 mph - N/A   Scattered Clouds
5:30 PM 102.2 °F 101.4 °F 57.2 °F 22% 30.04 in 6.2 mi NW 10.4 mph - N/A   Scattered Clouds
6:00 PM 102.2 °F 100.9 °F 55.4 °F 21% 30.04 in 6.2 mi NW 11.5 mph - N/A   Scattered Clouds
6:30 PM 100.4 °F 98.8 °F 55.4 °F 22% 30.04 in 6.2 mi NNW 11.5 mph - N/A   Scattered Clouds
7:00 PM 97 °F - 55 °F 16% 29.94 in 6 mi NW 10.4 mph - -   Partly Cloudy
7:00 PM 96.8 °F 95.1 °F 55.4 °F 25% 30.06 in 6.2 mi NNW 9.2 mph - N/A   Scattered Clouds
7:30 PM 96.8 °F 95.1 °F 55.4 °F 25% 30.06 in 6.2 mi NNW 9.2 mph - N/A   Scattered Clouds
8:00 PM 95.0 °F 92.7 °F 53.6 °F 25% 30.06 in 6.2 mi NNW 8.1 mph - N/A   Scattered Clouds
8:30 PM 91.4 °F - 51.8 °F 26% 30.09 in 6.2 mi North 9.2 mph - N/A   Partly Cloudy
9:00 PM 89.6 °F - 50.0 °F 26% 30.09 in 6.2 mi NNE 6.9 mph - N/A   Partly Cloudy
9:30 PM 87.8 °F - 50.0 °F 27% 30.09 in 6.2 mi NNE 6.9 mph - N/A   Partly Cloudy
10:00 PM 87 °F - 50 °F 18% 30.02 in 6 mi NE 6.9 mph - -   Scattered Clouds
10:00 PM 86.0 °F - 50.0 °F 29% 30.12 in 6.2 mi NE 8.1 mph - N/A   Partly Cloudy
10:30 PM 86.0 °F - 48.2 °F 27% 30.12 in 6.2 mi NE 4.6 mph - N/A   Partly Cloudy
11:00 PM 84.2 °F - 50.0 °F 30% 30.12 in 6.2 mi NNE 3.5 mph - N/A   Partly Cloudy
11:30 PM 84.2 °F - 50.0 °F 30% 30.12 in - NNE 1.2 mph - N/A   Clear